Patna, India

1:33 PM IST on August 25, 2016 (GMT +0530)
Patna

Weather History for VEPT - May, 2014

Change the Weather History Date:

Saturday, May 10, 2014

  Actual Average Record
Temperature  
Mean Temperature 96 °F -  
Max Temperature 108 °F 97 °F 108 °F (2014)
Min Temperature 83 °F 81 °F 71 °F (1999)
Cooling Degree Days 30    
Growing Degree Days 46 (Base 50)    
Moisture  
Dew Point 62 °F    
Average Humidity 31    
Maximum Humidity 51    
Minimum Humidity 11    
Precipitation  
Precipitation 0.00 in - - ()
Sea Level Pressure  
Sea Level Pressure 29.53 in    
Wind  
Wind Speed 7 mph ()    
Max Wind Speed 14 mph    
Max Gust Speed 23 mph    
Visibility 2.3 miles    
Events      
Averages and records for this station are not official NWS values.
T = Trace of Precipitation, MM = Missing Value Source: Averaged Metar Reports

Daily Weather History Graph

Daily Weather History Graph

Search for Another Location

Airport or City:

Trip Planner

Search our weather history database for the weather conditions in past years. The results will help you decide how hot, cold, wet, or windy it might be!

Date:

Astronomy

May. 10, 2014 Rise Set
Actual Time 5:07 AM IST 6:25 PM IST
Civil Twilight 4:42 AM IST 6:49 PM IST
Nautical Twilight 4:13 AM IST 7:19 PM IST
Astronomical Twilight 3:43 AM IST 7:49 PM IST
Moon 2:18 PM IST (5/10) 1:56 AM IST (5/10)
Length of Visible Light 14h 07m
Length of Day
13h 17m
Waxing Gibbous, 78% of the Moon is Illuminated
May 10
Waxing Gibbous
May 15
Full
May 21
Last Quarter
May 29
New
Jun 6
First Quarter

Hourly Weather History & Observations

Time (IST) Temp. Heat Index Dew Point Humidity Pressure Visibility Wind Dir Wind Speed Gust Speed Precip Events Conditions
2:30 AM 86 °F - 62 °F 35% 29.50 in 1 mi West 5.8 mph - -   Haze
5:20 AM 84.2 °F 85.6 °F 64.4 °F 51% 29.50 in 1.9 mi WSW 6.9 mph - N/A   Haze
5:30 AM 84 °F - 65 °F 43% 29.51 in 1 mi WSW 6.9 mph - -   Haze
6:20 AM 86.0 °F 88.2 °F 66.2 °F 51% 29.53 in 1.9 mi SSW 6.9 mph - N/A   Haze
7:20 AM 87.8 °F 90.4 °F 66.2 °F 49% 29.56 in 1.9 mi WSW 6.9 mph - N/A   Haze
8:20 AM 95.0 °F 99.5 °F 68.0 °F 41% 29.56 in 1.9 mi WSW 11.5 mph - N/A   Haze
8:30 AM 95 °F - 67 °F 31% 29.60 in 1 mi West 9.2 mph - -   Haze
9:20 AM 96.8 °F 100.7 °F 66.2 °F 37% 29.56 in 2.5 mi West 11.5 mph 23.0 mph N/A   Haze
11:30 AM 103 °F - 62 °F 17% 29.59 in 2 mi West 4.6 mph - -  
12:20 PM 104.0 °F 105.3 °F 60.8 °F 24% 29.56 in 3.7 mi West 13.8 mph - N/A   Haze
1:20 PM 105.8 °F 105.5 °F 57.2 °F 20% 29.53 in 3.7 mi West 11.5 mph - N/A   Scattered Clouds
2:20 PM 107.6 °F 106.8 °F 55.4 °F 18% 29.50 in 3.7 mi NNW 11.5 mph - N/A   Scattered Clouds
2:30 PM 107 °F - 56 °F 11% 29.52 in 2 mi West 4.6 mph - -   Scattered Clouds
3:20 PM 107.6 °F 106.8 °F 55.4 °F 18% 29.47 in 3.7 mi NNW 9.2 mph - N/A   Scattered Clouds
4:20 PM 105.8 °F 105.5 °F 57.2 °F 20% 29.47 in 3.7 mi North 11.5 mph - N/A   Scattered Clouds
5:20 PM 104.0 °F 103.4 °F 57.2 °F 21% 29.47 in 3.1 mi North 6.9 mph - N/A   Haze
5:30 PM 104 °F - 58 °F 14% 29.49 in 2 mi West 4.6 mph - -   Scattered Clouds
7:20 PM 96.8 °F 99.0 °F 64.4 °F 34% 29.50 in 2.5 mi SW 2.3 mph - N/A   Haze
8:20 PM 91.4 °F 93.2 °F 64.4 °F 41% 29.53 in 2.5 mi SW 4.6 mph - N/A   Haze
8:30 PM 92 °F - 64 °F 30%  in 2 mi SW 4.6 mph - -   Haze
9:20 PM 91.4 °F 93.2 °F 64.4 °F 41% 29.56 in 2.5 mi SW 6.9 mph - N/A   Haze
10:20 PM 89.6 °F 90.1 °F 62.6 °F 40% 29.56 in 2.2 mi SW 6.9 mph - N/A   Haze
11:30 PM 89 °F - 62 °F 31% 29.54 in 1 mi South 6.9 mph - -   Haze